[[{"header":{"parameterUnit":"m.s-1","parameterCategory":1,"la1":30.2991,"la2":30.254,"lo1":-89.0895,"lo2":-89.0444,"dy":0.0017,"dx":0.0017,"nx":28,"ny":28,"refTime":"2025-06-13T03:00:00:Z","depth":0,"parameterNumber":2,"parameterNumberName":"U-component_of_WINDS"},"data":[0,0,0,0,0,0,0,0,0,0,0,0,0,0,0,0,0,0,0,0,0,0,0,0,0,0,0,0,0,0,0,0,0,0,0,0,0,0,0,0,0,0,0,0,0,0,0,0,0,0,0,0,0,0,0,0,0,0,-1.9036,-1.9036,0,-1.8998,-1.8998,-1.8998,-1.8959,-1.8959,-1.8958,-1.8958,-1.8919,-1.8919,-1.8918,0,0,0,0,0,0,0,0,0,0,0,0,0,-1.9076,-1.9075,-1.9036,-1.9035,-1.9035,-1.8999,-1.8998,-1.8997,-1.8959,-1.8959,-1.8958,-1.8958,-1.892,-1.8919,-1.8918,0,0,0,0,0,0,0,0,0,0,0,0,0,-1.9051,-1.9075,-1.9036,-1.9012,-1.9009,-1.8999,-1.8998,-1.8997,-1.896,-1.8959,-1.8958,-1.8957,-1.892,-1.8919,-1.8918,-1.8929,0,0,-1.8916,-1.8915,0,0,0,0,0,0,0,0,-1.9052,-1.9049,-1.9016,-1.9013,-1.901,-1.8983,-1.8998,-1.8974,-1.896,-1.8978,-1.8958,-1.8957,-1.8941,-1.8939,-1.8933,-1.8927,-1.8925,-1.8916,-1.8915,-1.8915,-1.8915,0,0,0,0,0,0,0,-1.9054,-1.9051,-1.9021,-1.9015,-1.9012,-1.9003,-1.8999,-1.8993,-1.8965,-1.8977,-1.8974,-1.897,-1.894,-1.8934,-1.8932,-1.8925,-1.8916,-1.8915,-1.8915,-1.8914,-1.8926,-1.8927,0,0,0,0,0,0,-1.9059,-1.9052,-1.9022,-1.902,-1.903,-1.9003,-1.8998,-1.8992,-1.8965,-1.896,-1.8971,-1.8968,-1.8936,-1.8933,-1.8931,-1.8941,-1.8915,-1.8914,-1.8914,-1.8926,-1.8927,-1.8928,0,0,0,0,0,0,-1.906,-1.9057,-1.9024,-1.9035,-1.903,-1.9003,-1.8997,-1.8992,-1.8986,-1.896,-1.8955,-1.897,-1.8935,-1.8932,-1.893,-1.8939,-1.8914,-1.8913,-1.8925,-1.8926,-1.8927,-1.8963,0,0,0,0,0,0,-1.9062,-1.9057,-1.9061,-1.9036,-1.903,-1.9023,-1.8998,-1.8992,-1.8985,-1.8982,-1.8958,-1.8953,-1.8934,-1.8931,-1.8929,-1.8938,-1.8912,-1.8924,-1.8925,-1.8927,-1.896,-1.8965,-1.8969,0,0,0,0,0,-1.9063,-1.9072,-1.9061,-1.9058,-1.9033,-1.9024,-1.9021,-1.8998,-1.8986,-1.8989,-1.8973,-1.8954,-1.8939,-1.8931,-1.8928,-1.8937,-1.8923,-1.8925,-1.8927,-1.8959,-1.8964,-1.8969,0,0,0,0,0,0,-1.9099,-1.9068,-1.9056,-1.9057,-1.9043,-1.9017,-1.9021,-1.9005,-1.8994,-1.8991,-1.8964,-1.8959,-1.8961,-1.8949,-1.8941,-1.8947,-1.8928,-1.893,-1.8954,-1.8959,-1.8963,-1.8965,-1.8912,0,0,0,0,0,-1.9107,-1.9101,-1.9075,-1.9079,-1.9073,-1.9048,-1.9043,-1.9027,-1.9012,-1.9006,-1.8989,-1.8975,-1.8967,-1.8963,-1.8954,-1.8959,-1.8954,-1.8964,-1.8968,-1.8972,-1.8973,-1.8975,-1.8979,-1.8934,-1.8933,-1.8933,0,0,-1.9123,-1.9106,-1.9104,-1.9086,-1.9073,-1.9068,-1.9043,-1.9039,-1.9036,-1.9005,-1.9002,-1.899,-1.8973,-1.8975,-1.8975,-1.8965,-1.8985,-1.8974,-1.8977,-1.8976,-1.8977,-1.8982,-1.8986,-1.8935,-1.8935,-1.8934,0,0,-1.9151,-1.9137,-1.9139,-1.9127,-1.9109,-1.9093,-1.9093,-1.907,-1.9061,-1.9057,-1.9035,-1.9031,-1.9017,-1.9006,-1.8999,-1.9024,-1.9007,-1.9022,-1.9043,-1.9046,-1.9049,-1.9053,-1.9061,-1.9065,-1.9024,-1.9024,-1.9024,0,-1.9173,-1.9165,-1.9142,-1.9139,-1.9132,-1.9105,-1.9107,-1.9097,-1.9077,-1.9072,-1.9062,-1.9046,-1.9032,-1.9031,-1.9038,-1.9033,-1.9033,-1.9024,-1.9051,-1.9054,-1.9056,-1.9064,-1.9068,-1.9026,-1.9025,-1.9025,-1.9025,0,-1.9193,-1.9188,-1.9192,-1.9173,-1.9167,-1.9166,-1.9144,-1.914,-1.9125,-1.9111,-1.9108,-1.9092,-1.9079,-1.9078,-1.9064,-1.9076,-1.907,-1.9056,-1.9037,-1.9063,-1.907,-1.9073,-1.9028,-1.9028,-1.9027,-1.9027,0,0,-1.924,-1.921,-1.9212,-1.9203,-1.9182,-1.9178,-1.9177,-1.9165,-1.9162,-1.915,-1.9148,-1.9139,-1.9126,-1.9118,-1.9102,-1.9105,-1.9126,-1.909,-1.9089,-1.9097,-1.9138,-1.9148,-1.9152,-1.9115,-1.9115,-1.9116,-1.9139,0,-1.9264,-1.9259,-1.9239,-1.9241,-1.9236,-1.9212,-1.9211,-1.9198,-1.9185,-1.9179,-1.9165,-1.9158,-1.9142,-1.9137,-1.9138,-1.9123,-1.9133,-1.9121,-1.9113,-1.9113,-1.9117,-1.9156,-1.9166,-1.9189,-1.9142,-1.9142,-1.9143,0,-1.9289,-1.9279,-1.928,-1.926,-1.9257,-1.9257,-1.9245,-1.9239,-1.9225,-1.9215,-1.9207,-1.919,-1.9188,-1.9172,-1.9169,-1.9161,-1.9157,-1.9149,-1.9149,-1.9147,-1.9128,-1.9153,-1.9195,-1.9199,-1.9147,-1.9146,-1.9146,0,-1.9323,-1.9309,-1.9308,-1.9302,-1.9278,-1.9279,-1.9269,-1.9254,-1.9248,-1.9238,-1.9234,-1.9224,-1.9219,-1.9212,-1.9192,-1.9182,-1.9192,-1.9174,-1.9184,-1.9184,-1.9186,-1.9186,-1.9227,-1.9185,-1.9185,-1.9185,-1.9185,0,-1.935,-1.9352,-1.9323,-1.9323,-1.9324,-1.9302,-1.9304,-1.9292,-1.9279,-1.9276,-1.9255,-1.9253,-1.9228,-1.9224,-1.9209,-1.9209,-1.9207,-1.9199,-1.9195,-1.92,-1.9201,-1.9196,-1.9194,-1.9186,-1.9186,-1.9185,-1.9185,0,-1.9387,-1.9368,-1.9366,-1.9344,-1.9338,-1.9341,-1.9322,-1.9321,-1.9307,-1.9304,-1.9302,-1.928,-1.9273,-1.9254,-1.9243,-1.9233,-1.9237,-1.923,-1.9242,-1.9239,-1.925,-1.9249,-1.9288,-1.9292,-1.9249,-1.9249,-1.925,0,-1.9406,-1.9406,-1.9385,-1.9381,-1.9372,-1.9367,-1.9361,-1.934,-1.9335,-1.9319,-1.932,-1.9312,-1.9304,-1.9295,-1.9278,-1.927,-1.9262,-1.9276,-1.926,-1.9266,-1.9261,-1.9261,-1.9261,-1.9279,-1.928,-1.9281,-1.9281,0,-1.944,-1.9431,-1.9423,-1.9413,-1.9407,-1.9398,-1.9387,-1.9386,-1.9362,-1.9358,-1.9351,-1.9345,-1.9333,-1.9326,-1.9315,-1.9305,-1.9289,-1.9286,-1.9288,-1.9293,-1.93,-1.9296,-1.925,-1.9285,-1.9285,-1.9284,-1.9284,-1.9284,-1.9467,-1.9467,-1.9452,-1.9445,-1.9435,-1.9426,-1.9424,-1.941,-1.9404,-1.9393,-1.9381,-1.9376,-1.9362,-1.9346,-1.9337,-1.9333,-1.9325,-1.9327,-1.9328,-1.9328,-1.9331,-1.9302,-1.9331,-1.9331,-1.9331,-1.9331,-1.9331,0,-1.95,-1.949,-1.9483,-1.9469,-1.9464,-1.945,-1.9438,-1.9435,-1.943,-1.9419,-1.9412,-1.9404,-1.9397,-1.938,-1.9372,-1.9371,-1.9364,-1.937,-1.9369,-1.9367,-1.9339,-1.9338,-1.9376,-1.9376,-1.9376,-1.9376,-1.9376,-1.9376,-1.9517,-1.9515,-1.9505,-1.9499,-1.9488,-1.9482,-1.9477,-1.9469,-1.946,-1.9452,-1.9446,-1.9435,-1.9422,-1.9413,-1.9406,-1.9401,-1.9398,-1.9407,-1.94,-1.9373,-1.9369,-1.9365,-1.9364,-1.9406,-1.9406,-1.9428,-1.9428,-1.9428]},{"header":{"parameterUnit":"m.s-1","parameterCategory":1,"la1":30.2991,"la2":30.254,"lo1":-89.0895,"lo2":-89.0444,"dy":0.0017,"dx":0.0017,"nx":28,"ny":28,"refTime":"2025-06-13T03:00:00:Z","depth":0,"parameterNumber":3,"parameterNumberName":"V-component_of_WINDS"},"data":[0,0,0,0,0,0,0,0,0,0,0,0,0,0,0,0,0,0,0,0,0,0,0,0,0,0,0,0,0,0,0,0,0,0,0,0,0,0,0,0,0,0,0,0,0,0,0,0,0,0,0,0,0,0,0,0,0,0,5.0966,5.0966,0,5.0928,5.0928,5.0927,5.0894,5.0894,5.0894,5.0893,5.0851,5.0851,5.085,0,0,0,0,0,0,0,0,0,0,0,0,0,5.1009,5.1008,5.0966,5.0966,5.0965,5.0928,5.0928,5.0927,5.0894,5.0894,5.0894,5.0893,5.0852,5.0851,5.085,0,0,0,0,0,0,0,0,0,0,0,0,0,5.0982,5.1008,5.0966,5.0945,5.0942,5.0928,5.0928,5.0927,5.0895,5.0894,5.0893,5.0893,5.0852,5.0851,5.085,5.0853,0,0,5.0846,5.0845,0,0,0,0,0,0,0,0,5.0984,5.0981,5.0948,5.0946,5.0943,5.0916,5.0927,5.0902,5.0895,5.0913,5.0893,5.0893,5.0873,5.087,5.0864,5.0851,5.0849,5.0846,5.0845,5.0845,5.0844,0,0,0,0,0,0,0,5.0986,5.0982,5.0951,5.0948,5.0945,5.0936,5.0932,5.0922,5.0896,5.0911,5.0909,5.0905,5.0871,5.0865,5.0863,5.0849,5.0846,5.0845,5.0844,5.0844,5.0838,5.0839,0,0,0,0,0,0,5.0991,5.0984,5.0952,5.095,5.0963,5.0936,5.0931,5.0925,5.0896,5.0891,5.0905,5.0903,5.0867,5.0864,5.0861,5.0864,5.0845,5.0844,5.0843,5.0838,5.0838,5.0839,0,0,0,0,0,0,5.0992,5.0989,5.0954,5.0966,5.0961,5.0936,5.0929,5.0924,5.0918,5.0892,5.0887,5.0904,5.0867,5.0863,5.0856,5.0862,5.0843,5.0842,5.0837,5.0838,5.0839,5.087,0,0,0,0,0,0,5.0994,5.0989,5.0991,5.0967,5.0961,5.095,5.093,5.0924,5.0917,5.0914,5.0889,5.0884,5.0866,5.0858,5.0855,5.086,5.0841,5.0836,5.0837,5.0838,5.0869,5.0872,5.0875,0,0,0,0,0,5.0995,5.1,5.0991,5.0987,5.0962,5.095,5.0947,5.0927,5.0917,5.0918,5.0902,5.0885,5.0862,5.0857,5.0854,5.0859,5.0836,5.0837,5.0838,5.0867,5.0871,5.0875,0,0,0,0,0,0,5.1024,5.0997,5.0986,5.0983,5.097,5.0945,5.0945,5.0932,5.0919,5.0917,5.0892,5.0886,5.0882,5.087,5.0865,5.0862,5.0847,5.0847,5.087,5.0874,5.0877,5.088,5.084,0,0,0,0,0,5.1031,5.1024,5.1,5.1,5.0994,5.0971,5.0965,5.0951,5.0935,5.0929,5.0911,5.0896,5.0886,5.0879,5.0868,5.0867,5.0861,5.0869,5.0872,5.0875,5.0876,5.0875,5.0879,5.0843,5.0843,5.0843,0,0,5.1043,5.1027,5.1024,5.1005,5.0993,5.0987,5.0966,5.096,5.0955,5.0927,5.092,5.0907,5.0889,5.0885,5.0883,5.0875,5.0884,5.0876,5.0879,5.0878,5.0877,5.088,5.0883,5.0844,5.0844,5.0844,0,0,5.1063,5.105,5.1049,5.1038,5.102,5.1005,5.1005,5.0983,5.0973,5.0966,5.0946,5.0939,5.0921,5.0909,5.0901,5.0918,5.0902,5.0915,5.0932,5.0932,5.0935,5.0937,5.0944,5.0947,5.0916,5.0916,5.0916,0,5.108,5.107,5.105,5.1046,5.1038,5.1015,5.1014,5.1003,5.0982,5.0978,5.0969,5.0947,5.0933,5.0927,5.0931,5.0925,5.0924,5.0917,5.0936,5.0938,5.094,5.0946,5.0949,5.0917,5.0917,5.0917,5.0917,0,5.1093,5.1087,5.1088,5.1071,5.1063,5.106,5.1039,5.1034,5.1021,5.1007,5.1001,5.0983,5.0968,5.0966,5.0952,5.0958,5.0954,5.0941,5.0926,5.0946,5.0951,5.0953,5.092,5.0919,5.0919,5.0918,0,0,5.1129,5.1102,5.1102,5.1095,5.1074,5.1068,5.1065,5.1052,5.1048,5.1035,5.1031,5.1017,5.1006,5.0997,5.0982,5.0982,5.0998,5.0969,5.0968,5.0975,5.1004,5.1014,5.1017,5.0987,5.0988,5.0988,5.1006,0,5.1146,5.1139,5.1122,5.112,5.1114,5.1093,5.109,5.1077,5.1064,5.1057,5.1042,5.1033,5.1018,5.1013,5.1012,5.0996,5.1003,5.0994,5.0984,5.0984,5.099,5.102,5.103,5.1048,5.1008,5.1008,5.1009,0,5.1164,5.1154,5.1153,5.1134,5.1131,5.1128,5.1116,5.1109,5.1094,5.1085,5.1075,5.1059,5.1054,5.104,5.1033,5.1028,5.1022,5.1014,5.1014,5.1012,5.0997,5.102,5.1053,5.1056,5.1012,5.1011,5.1011,0,5.1192,5.1178,5.1175,5.1169,5.1147,5.1146,5.1136,5.112,5.1114,5.1103,5.1099,5.1087,5.108,5.1071,5.1052,5.1044,5.1047,5.1032,5.104,5.104,5.1041,5.1042,5.1075,5.1037,5.1037,5.1037,5.1037,0,5.1213,5.1213,5.1188,5.1186,5.1186,5.1165,5.1165,5.1153,5.114,5.1136,5.1116,5.1112,5.1087,5.1081,5.1066,5.1063,5.106,5.1052,5.1048,5.1054,5.1055,5.105,5.1049,5.1038,5.1038,5.1038,5.1038,0,5.1244,5.1226,5.1223,5.1202,5.1197,5.1198,5.118,5.1178,5.1165,5.1159,5.1157,5.1136,5.1127,5.1107,5.1093,5.1083,5.1084,5.1076,5.109,5.1087,5.1097,5.1096,5.1128,5.1132,5.1092,5.1092,5.1092,0,5.1258,5.1258,5.1238,5.1235,5.1226,5.122,5.1215,5.1195,5.1189,5.1173,5.1173,5.1163,5.1154,5.1141,5.1124,5.1113,5.1106,5.1118,5.1104,5.111,5.1107,5.1107,5.1107,5.1121,5.1121,5.1122,5.1122,0,5.1286,5.1278,5.1271,5.1261,5.1255,5.1246,5.1236,5.1234,5.1212,5.1207,5.1198,5.1192,5.1178,5.1169,5.1156,5.1145,5.113,5.1127,5.1128,5.1134,5.1142,5.1139,5.1099,5.1126,5.1126,5.1125,5.1125,5.1125,5.131,5.1309,5.1296,5.1289,5.1279,5.1271,5.1268,5.1255,5.1248,5.1236,5.1225,5.1218,5.1204,5.1185,5.1176,5.117,5.1162,5.1164,5.1164,5.1165,5.1168,5.1143,5.1167,5.1167,5.1167,5.1167,5.1167,0,5.1338,5.1328,5.1322,5.131,5.1304,5.1292,5.128,5.1276,5.1271,5.1259,5.1252,5.1243,5.1234,5.1217,5.1206,5.1205,5.1198,5.1203,5.1203,5.1201,5.1175,5.1175,5.1209,5.1209,5.1209,5.1209,5.1209,5.1209,5.1352,5.135,5.1341,5.1335,5.1325,5.1319,5.1314,5.1306,5.1297,5.1288,5.1281,5.1271,5.1257,5.1246,5.1237,5.1232,5.123,5.1237,5.123,5.1206,5.1202,5.1199,5.1199,5.1237,5.1237,5.1256,5.1256,5.1257]}]]